Regional Weather Roundup
Issued by NWS

Home | Current Version | Previous Version | Graphics & Text | Print | Product List | Glossary On
Versions: 1 2 3 4 5 6 7 8 9 10 11 12 13 14 15 16 17 18 19 20 21 22 23 24 25 26 27 28 29 30 31 32 33 34 35 36 37 38 39 40 41 42 43 44 45 46 47 48 49 50
633
ASUS45 KSLC 221010
RWRUT

UTAH REGIONAL WEATHER ROUNDUP
NATIONAL WEATHER SERVICE SALT LAKE CITY UT
300 AM MST SUN JAN 22 2017

UTZ001>011-023>025-221100-

NORTHERN UTAH

CITY           SKY/WX    TMP DP  RH WIND       PRES   REMARKS
BRIGHAM CITY     N/A     23  20  89 CALM      29.99R
HILL AFB       MOCLDY    19  16  86 S9        29.97R WCI   9
LOGAN          CLOUDY    23  22  96 CALM      29.96R
OGDEN          CLOUDY    27  23  85 S13       29.96R WCI  16
SALT LAKE CITY PTCLDY    28  24  85 SE13      29.98R WCI  17
TOOELE VALLEY  CLOUDY    30  23  74 S17       29.97S WCI  18
WENDOVER       PTCLDY    21  18  86 NE5       29.95R WCI  15
HEBER CITY     CLOUDY    18  16  93 CALM      29.98R
WEST JORDAN    PTCLDY    28  28 100 S12       29.99R WCI  18

$$

UTZ011>015-024>027-221100-

CENTRAL/NORTHEAST UTAH

CITY           SKY/WX    TMP DP  RH WIND       PRES   REMARKS
PROVO AIRPORT  MOCLDY    22  20  92 E3        30.03S
MOAB/CANYONLAN CLEAR     31  24  75 N3        30.00R
DELTA          CLOUDY    23  19  86 S13       30.00R WCI  11
PRICE          PTCLDY    13   9  84 N5        29.97R WCI   5
ROOSEVELT      CLOUDY    16  12  86 W3        30.01R FOG
VERNAL         CLOUDY    21  20  96 CALM      29.99R

$$

UTZ013>016-019>022-027-221100-

SOUTHERN UTAH

CITY           SKY/WX    TMP DP  RH WIND       PRES   REMARKS
BRYCE CANYON   CLOUDY     7   3  84 W13       30.01R WCI  -9
CEDAR CITY     CLOUDY    22  15  75 E6        29.98F WCI  14
MILFORD        CLOUDY    28  22  78 SW15      30.00R WCI  16
ST GEORGE      SUNNY     36  28  75 S6        30.05F WCI  31
HANKSVILLE     PTCLDY    25  23  93 MISG      30.04R
BLANDING       PTCLDY    15  13  95 N5        30.08R WCI   7

$$

REGIONAL REPORTS     COLORADO/ARIZONA

CITY           SKY/WX    TMP DP  RH WIND       PRES   REMARKS
CRAIG, CO      CLOUDY    22  17  81 W5        29.95R WCI  16
GRAND JUNCTION CLEAR     27  24  89 CALM      30.00R
RIFLE, CO      CLOUDY    32  27  81 W8        29.97R WCI  25
MONTROSE, CO   CLOUDY    29  27  92 S7        30.02R WCI  22
CORTEZ, CO     CLOUDY    15  13  91 NE5       30.01R WCI   8
COLORADO CITY    N/A     23  21  93 E7        30.03F WCI  15
PAGE, AZ       CLEAR     32  23  69 SE6       30.05R WCI  26
GRAND CANYON   PTCLDY     2  -1  88 CALM      30.07R
KINGMAN, AZ    CLOUDY    39  23  52 SE13      30.08R WCI  31
FLAGSTAFF, AZ  CLOUDY    21  21 100 CALM      30.07R

$$

REGIONAL REPORTS    NEVADA/IDAHO/WYOMING

CITY           SKY/WX    TMP DP  RH WIND       PRES   REMARKS
LAS VEGAS, NV  CLOUDY    47  32  56 S6        30.02R
ELY, NY        CLOUDY    24  19  81 S15       29.91F WCI  11
ELKO, NV       CLOUDY    24  15  68 CALM      29.84F
POCATELLO, ID  CLOUDY    33  23  66 S8        29.91R WCI  26
BURLEY, ID     CLOUDY    35  23  61 S12       29.87R WCI  27
FORT BRIDGER,  SUNNY     21  18  86 W15       29.95R WCI   8
EVANSTON, WY   CLOUDY    18  13  80 SW12      29.94R WCI   5
ROCK SPRINGS,  PTCLDY    19  14  81 W22       29.92R WCI   2

$$




USA.gov is the U.S. government's official web portal to all federal, state and local government web resources and services.